Location: Seattle
(47.6060°N, 122.3310°W)
Time: 14:10:12
(UTC-07:00)

ISS - Visible Passes

Search period start: 04 May 2016 00:00
Search period end: 14 May 2016 00:00
Orbit: 402 x 405 km, 51.6° (Epoch: 04 May)

Date Brightness Start Highest point End Pass type
(mag) Time Alt. Az. Time Alt. Az. Time Alt. Az.
10 May -1.0 04:31:10 10° S 04:33:14 16° SE 04:35:18 10° E visible
12 May -2.1 04:21:59 15° SSW 04:24:13 31° SE 04:27:09 10° E visible
13 May -1.4 03:31:17 18° SSE 03:31:46 19° SE 03:34:08 10° E visible
